Dati Storici

Data ora Umidita' aria (%) Temperatura aria (°C) Rad globale (W/m²) Gonioanemometro (°) Tacoanemometro (m/s) Pioggia (mm)
12-06-2020 10:10 66.3 % 21.617 -76.948 1.307 0 0
12-06-2020 10:00 65.4 % 21.183 -67.811 1.943 0 0
12-06-2020 09:50 65.6 % 22.437 -76.089 1.036 0 0
12-06-2020 09:40 67.4 % 22.147 -75.533 1.584 0 0
12-06-2020 09:30 67.6 % 21.435 -72.409 0.661 0 0
12-06-2020 09:20 65.1 % 22.618 -72.241 0.763 0 0
12-06-2020 09:10 66.8 % 21.229 -68.345 0.291 0 0
12-06-2020 09:00 67.6 % 20.468 -62.067 1.037 0 0
12-06-2020 08:50 67.8 % 21.306 -75.276 -0.015 0 0
12-06-2020 08:40 68.4 % 21.797 -64.628 -0.015 0 0
12-06-2020 08:30 69.5 % 21.393 -57.79 0.346 0 0
12-06-2020 08:20 70.1 % 20.529 -70.683 -0.015 0 0
12-06-2020 08:10 70.5 % 20.944 -81.24 -0.016 0 0
12-06-2020 08:00 70.6 % 21.056 -50.21 -0.015 0 0
12-06-2020 07:50 74.1 % 20.693 -82.138 -0.012 0 0
12-06-2020 07:40 77.3 % 19.706 -51.497 -0.007 0 0
12-06-2020 07:30 80.1 % 18.949 -79.014 -0.007 0 0
12-06-2020 07:20 78.3 % 18.04 -80.507 0.786 0 0
12-06-2020 07:10 79.5 % 18.629 -75.317 -0.008 0 0
12-06-2020 07:00 77.3 % 18.186 -78.292 1.175 0 0

I dati sono presentati in modo automatico a scopo informativo. In seguito a verifica i dati possono subire modifiche o essere invalidati e non riportati negli archivi definitivi.